Location: McFarlands Corners
(41.4117°N, 81.3382°W)
Time: 20:48:15
(UTC+00:00)

SR - Pass Details

Date: 23 February 2026
Orbit: 572 x 848 km, 66.7° (Epoch: 8 March)

Event Time Altitude Azimuth Distance (km) Brightness Sun altitude
Rises 16:51:58 0° 334° (NNW) 3,098 ? 37.8°
Reaches altitude 10° 16:54:19 10° 340° (NNW) 2,221 ? 37.9°
Maximum altitude 16:59:16 49° 56° (NE) 979 ? 38.1°
Drops below altitude 10° 17:04:33 10° 131° (SE) 2,375 ? 38.3°
Sets 17:07:08 0° 136° (SE) 3,335 ? 38.4°
